| time (UTC) | temp F | wind direction | speed MPH | gust MPH | rain 1hr in | rain 24hr in | rain mn in | humidity % | barometer mb |
| 20260906071537 | 79 | 246 | 2.0 | 3.0 | 0.00 | 0.00 | 0.00 | 62 | 1017.3 |
| 20260906070001 | 80 | 5 | 0.0 | 2.0 | 0.00 | 0.00 | 0.00 | 60 | 1017.2 |
| 20260906064531 | 78 | 19 | 1.0 | 3.0 | 0.00 | 0.00 | 0.00 | 61 | 1017.1 |
| 20260906063059 | 77 | 24 | 0.0 | 3.0 | 0.00 | 0.00 | 0.00 | 68 | 1017.1 |
| 20260906061527 | 74 | 22 | 0.0 | 3.0 | 0.00 | 0.00 | 0.00 | 71 | 1017.0 |
| 20260906060130 | 73 | 22 | 0.0 | 0.0 | 0.00 | 0.00 | 0.00 | 76 | 1016.8 |
| 20260906054519 | 73 | 22 | 0.0 | 0.0 | 0.00 | 0.00 | 0.00 | 75 | 1016.7 |
| 20260906053049 | 73 | 22 | 0.0 | 0.0 | 0.00 | 0.00 | 0.00 | 70 | 1016.5 |
| 20260906051606 | 73 | 22 | 0.0 | 0.0 | 0.00 | 0.00 | 0.00 | 69 | 1016.5 |
| 20260906050029 | 72 | 22 | 1.0 | 3.0 | 0.00 | 0.00 | 0.00 | 68 | 1016.5 |
| 20260906044545 | 72 | 22 | 2.0 | 3.0 | 0.00 | 0.00 | 0.00 | 71 | 1016.3 |
| 20260906043012 | 72 | 22 | 2.0 | 4.0 | 0.00 | 0.00 | 0.00 | 71 | 1016.4 |
| 20260906041545 | 72 | 19 | 2.0 | 5.0 | 0.00 | 0.00 | 0.00 | 71 | 1016.4 |
| 20260906040017 | 72 | 19 | 3.0 | 8.0 | 0.00 | 0.00 | 0.00 | 71 | 1016.3 |
| 20260906034541 | 73 | 14 | 3.0 | 6.0 | 0.00 | 0.00 | 0.00 | 71 | 1016.1 |
| 20260906033051 | 73 | 19 | 4.0 | 6.0 | 0.00 | 0.00 | 0.00 | 70 | 1016.1 |
| 20260906031532 | 73 | 26 | 3.0 | 5.0 | 0.00 | 0.00 | 0.00 | 70 | 1016.1 |
| 20260906030031 | 73 | 17 | 3.0 | 5.0 | 0.00 | 0.00 | 0.00 | 68 | 1016.1 |
| 20260906024605 | 74 | 29 | 3.0 | 4.0 | 0.00 | 0.00 | 0.00 | 66 | 1016.2 |
| 20260906023024 | 74 | 28 | 3.0 | 5.0 | 0.00 | 0.00 | 0.00 | 65 | 1016.2 |
| 20260906021557 | 75 | 28 | 0.0 | 1.0 | 0.00 | 0.00 | 0.00 | 69 | 1016.2 |
| 20260906020006 | 75 | 28 | 2.0 | 5.0 | 0.00 | 0.00 | 0.00 | 68 | 1016.3 |
| 20260906014538 | 75 | 44 | 3.0 | 5.0 | 0.00 | 0.00 | 0.00 | 64 | 1016.2 |
| 20260906013051 | 74 | 22 | 3.0 | 9.0 | 0.00 | 0.00 | 0.00 | 66 | 1016.2 |
| 20260906011518 | 74 | 38 | 4.0 | 10.0 | 0.00 | 0.00 | 0.00 | 67 | 1016.2 |
| 20260906010048 | 74 | 22 | 3.0 | 9.0 | 0.00 | 0.00 | 0.00 | 66 | 1016.2 |
| 20260906004514 | 74 | 26 | 3.0 | 5.0 | 0.00 | 0.00 | 0.00 | 66 | 1016.2 |
| 20260906003047 | 75 | 355 | 4.0 | 10.0 | 0.00 | 0.00 | 0.00 | 68 | 1016.4 |
| 20260906001556 | 75 | 26 | 5.0 | 11.0 | 0.00 | 0.00 | 0.00 | 67 | 1016.5 |
| 20260906000023 | 76 | 19 | 4.0 | 9.0 | 0.00 | 0.00 | 0.00 | 66 | 1016.5 |
| 20260905234557 | 76 | 17 | 3.0 | 8.0 | 0.00 | 0.00 | 0.00 | 68 | 1016.5 |
| 20260905233021 | 76 | 336 | 4.0 | 9.0 | 0.00 | 0.00 | 0.00 | 65 | 1016.6 |
| 20260905231551 | 75 | 350 | 1.0 | 3.0 | 0.00 | 0.00 | 0.00 | 60 | 1016.6 |
| 20260905230014 | 77 | 13 | 0.0 | 1.0 | 0.00 | 0.00 | 0.00 | 57 | 1016.6 |
| 20260905224548 | 78 | 10 | 2.0 | 6.0 | 0.00 | 0.00 | 0.00 | 56 | 1016.5 |
| 20260905223059 | 78 | 346 | 3.0 | 9.0 | 0.00 | 0.00 | 0.00 | 54 | 1016.6 |
| 20260905221527 | 78 | 331 | 3.0 | 8.0 | 0.00 | 0.00 | 0.00 | 55 | 1016.6 |
| 20260905220056 | 77 | 312 | 2.0 | 8.0 | 0.00 | 0.00 | 0.00 | 57 | 1016.5 |
| 20260905214519 | 78 | 286 | 1.0 | 4.0 | 0.00 | 0.00 | 0.00 | 55 | 1016.4 |
| 20260905213047 | 77 | 333 | 1.0 | 8.0 | 0.00 | 0.00 | 0.00 | 56 | 1016.4 |
| 20260905211515 | 77 | 290 | 0.0 | 9.0 | 0.00 | 0.00 | 0.00 | 57 | 1016.5 |
| 20260905210050 | 76 | 24 | 1.0 | 8.0 | 0.00 | 0.00 | 0.00 | 59 | 1016.4 |
| 20260905204601 | 75 | 19 | 5.0 | 8.0 | 0.00 | 0.00 | 0.00 | 62 | 1016.3 |
| 20260905203023 | 75 | 13 | 4.0 | 6.0 | 0.00 | 0.00 | 0.00 | 64 | 1016.4 |
| 20260905201555 | 76 | 38 | 3.0 | 6.0 | 0.00 | 0.00 | 0.00 | 61 | 1016.3 |
| 20260905200020 | 76 | 5 | 0.0 | 3.0 | 0.00 | 0.00 | 0.00 | 63 | 1016.3 |
| 20260905194551 | 76 | 5 | 0.0 | 4.0 | 0.00 | 0.00 | 0.00 | 59 | 1016.4 |
| 20260905193015 | 76 | 10 | 3.0 | 8.0 | 0.00 | 0.00 | 0.00 | 58 | 1016.3 |
| 20260905191547 | 77 | 11 | 2.0 | 4.0 | 0.00 | 0.00 | 0.00 | 61 | 1016.1 |
| 20260905184532 | 79 | 222 | 2.0 | 5.0 | 0.00 | 0.00 | 0.00 | 62 | 1015.9 |
| 20260905183058 | 79 | 170 | 3.0 | 6.0 | 0.00 | 0.00 | 0.00 | 61 | 1015.7 |
| 20260905181526 | 81 | 208 | 1.0 | 9.0 | 0.00 | 0.00 | 0.00 | 55 | 1015.7 |
| 20260905180112 | 81 | 231 | 4.0 | 7.0 | 0.00 | 0.00 | 0.00 | 53 | 1015.7 |
| 20260905174506 | 82 | 263 | 1.0 | 6.0 | 0.00 | 0.00 | 0.00 | 51 | 1015.6 |
| 20260905173039 | 83 | 234 | 2.0 | 7.0 | 0.00 | 0.00 | 0.00 | 48 | 1015.5 |
| 20260905171502 | 84 | 252 | 3.0 | 7.0 | 0.00 | 0.00 | 0.00 | 46 | 1015.4 |
| 20260905170032 | 85 | 257 | 5.0 | 10.0 | 0.00 | 0.00 | 0.00 | 50 | 1015.4 |
| 20260905164550 | 85 | 242 | 6.0 | 11.0 | 0.00 | 0.00 | 0.00 | 47 | 1015.3 |
| 20260905163012 | 86 | 227 | 5.0 | 11.0 | 0.00 | 0.00 | 0.00 | 45 | 1015.4 |
| 20260905161545 | 86 | 231 | 4.0 | 10.0 | 0.00 | 0.00 | 0.00 | 45 | 1015.3 |
| 20260905154526 | 87 | 236 | 5.0 | 12.0 | 0.00 | 0.00 | 0.00 | 47 | 1015.4 |
| 20260905153053 | 87 | 242 | 5.0 | 15.0 | 0.00 | 0.00 | 0.00 | 47 | 1015.4 |
| 20260905151521 | 88 | 252 | 6.0 | 15.0 | 0.00 | 0.00 | 0.00 | 42 | 1015.4 |
| 20260905150049 | 86 | 178 | 10.0 | 14.0 | 0.00 | 0.00 | 0.00 | 52 | 1015.4 |
| 20260905144603 | 87 | 203 | 7.0 | 17.0 | 0.00 | 0.00 | 0.00 | 45 | 1015.4 |
| 20260905143025 | 87 | 184 | 10.0 | 17.0 | 0.00 | 0.00 | 0.00 | 43 | 1015.5 |
| 20260905141558 | 86 | 191 | 9.0 | 15.0 | 0.00 | 0.00 | 0.00 | 52 | 1015.6 |
| 20260905140021 | 86 | 183 | 9.0 | 16.0 | 0.00 | 0.00 | 0.00 | 53 | 1015.8 |
| 20260905134558 | 86 | 191 | 10.0 | 16.0 | 0.00 | 0.00 | 0.00 | 50 | 1015.8 |
| 20260905133020 | 87 | 148 | 9.0 | 16.0 | 0.00 | 0.00 | 0.00 | 48 | 1015.7 |
| 20260905131546 | 87 | 199 | 8.0 | 15.0 | 0.00 | 0.00 | 0.00 | 48 | 1015.8 |
| 20260905130010 | 87 | 180 | 9.0 | 14.0 | 0.00 | 0.00 | 0.00 | 47 | 1016.1 |
| 20260905124546 | 87 | 239 | 11.0 | 17.0 | 0.00 | 0.00 | 0.00 | 43 | 1016.0 |
| 20260905123102 | 87 | 165 | 8.0 | 18.0 | 0.00 | 0.00 | 0.00 | 43 | 1016.2 |
| 20260905121521 | 86 | 200 | 9.0 | 16.0 | 0.00 | 0.00 | 0.00 | 44 | 1016.3 |
| 20260905120100 | 86 | 175 | 9.0 | 15.0 | 0.00 | 0.00 | 0.00 | 45 | 1016.3 |
| 20260905114517 | 87 | 181 | 12.0 | 18.0 | 0.00 | 0.00 | 0.00 | 41 | 1016.2 |
| 20260905113054 | 88 | 185 | 8.0 | 14.0 | 0.00 | 0.00 | 0.00 | 34 | 1016.2 |
| 20260905111515 | 87 | 184 | 6.0 | 19.0 | 0.00 | 0.00 | 0.00 | 35 | 1016.2 |
| 20260905110040 | 88 | 188 | 8.0 | 13.0 | 0.00 | 0.00 | 0.00 | 39 | 1016.3 |
| 20260905104555 | 88 | 163 | 3.0 | 12.0 | 0.00 | 0.00 | 0.00 | 38 | 1016.3 |
| 20260905103026 | 87 | 226 | 7.0 | 15.0 | 0.00 | 0.00 | 0.00 | 40 | 1016.5 |
| 20260905101551 | 87 | 169 | 4.0 | 11.0 | 0.00 | 0.00 | 0.00 | 38 | 1016.5 |
| 20260905100015 | 86 | 140 | 5.0 | 12.0 | 0.00 | 0.00 | 0.00 | 36 | 1016.5 |
| 20260905094547 | 86 | 216 | 6.0 | 10.0 | 0.00 | 0.00 | 0.00 | 38 | 1016.6 |
| 20260905093121 | 85 | 194 | 5.0 | 10.0 | 0.00 | 0.00 | 0.00 | 44 | 1016.7 |
| 20260905091527 | 84 | 195 | 6.0 | 10.0 | 0.00 | 0.00 | 0.00 | 48 | 1016.6 |
| 20260905090057 | 83 | 213 | 3.0 | 10.0 | 0.00 | 0.00 | 0.00 | 50 | 1016.4 |
| 20260905084520 | 82 | 221 | 5.0 | 9.0 | 0.00 | 0.00 | 0.00 | 57 | 1016.4 |
| 20260905083047 | 81 | 204 | 3.0 | 8.0 | 0.00 | 0.00 | 0.00 | 63 | 1016.4 |
| 20260905081515 | 80 | 192 | 4.0 | 7.0 | 0.00 | 0.00 | 0.00 | 66 | 1016.3 |
| 20260905080044 | 79 | 180 | 4.0 | 7.0 | 0.00 | 0.00 | 0.00 | 69 | 1016.3 |
| 20260905074604 | 79 | 210 | 4.0 | 7.0 | 0.00 | 0.00 | 0.00 | 70 | 1016.3 |
| 20260905073035 | 79 | 203 | 4.0 | 6.0 | 0.00 | 0.00 | 0.00 | 69 | 1016.1 |